Date String (YYYY-MM-DD hh:mm:ss) UTC,Instrument flags,Ambient pressure (hPa),Sample flow (lpm),Bypass flow (lpm),Sample temperature (°C),Ambient temperature (°C),ASC tube jacket temperature (°C),LED temperature (°C),Box temperature (°C),Sample RH (%),Span deviation,Mass concentration (μg/m³),Mass concentration (μg/m³),Mass concentration (μg/m³)
DateTimeUTC,F1_M11,P_M11,Q1_M11,Q2_M11,T1_M11,T2_M11,T3_M11,T4_M11,T5_M11,U1_M11,ZSPAN_M11,X0_M11,X2_M11,X1_M11
2022-05-21 08:00:00,,0828.2,5.00,0.00,22.6,21.7,00.0,31.6,24.5,20.0,0000.0,0003.85,0002.91,0002.70
2022-05-21 08:01:00,,0828.2,5.01,0.00,22.6,21.7,00.0,31.6,24.5,20.0,0000.0,0003.27,0002.95,0002.72
2022-05-21 08:02:00,,0828.2,5.01,0.00,22.6,21.7,00.0,31.6,24.5,20.0,0000.0,0003.25,0002.93,0002.71
2022-05-21 08:03:00,,0828.3,5.00,0.00,22.6,21.7,00.0,31.6,24.5,20.0,0000.0,0003.28,0002.94,0002.72
2022-05-21 08:04:00,,0828.3,5.00,0.00,22.6,21.7,00.0,31.6,24.5,20.0,0000.0,0003.38,0002.98,0002.74
2022-05-21 08:05:00,,0828.2,5.01,0.00,22.6,21.7,00.0,31.6,24.5,20.0,0000.0,0003.46,0002.99,0002.74
2022-05-21 08:06:00,,0828.2,4.99,0.00,22.6,21.7,00.0,31.6,24.5,20.0,0000.0,0003.46,0002.98,0002.73
2022-05-21 08:07:00,,0828.2,5.01,0.00,22.6,21.7,00.0,31.6,24.5,20.0,0000.0,0003.47,0002.98,0002.72
2022-05-21 08:08:00,,0828.2,4.99,0.00,22.6,21.7,00.0,31.6,24.5,20.0,0000.0,0003.50,0002.99,0002.72
2022-05-21 08:09:00,,0828.2,5.00,0.00,22.6,21.7,00.0,31.6,24.5,19.9,0000.0,0003.54,0003.02,0002.72
2022-05-21 08:10:00,,0828.3,5.01,0.00,22.6,21.7,00.0,31.6,24.5,19.9,0000.0,0003.53,0003.01,0002.69
2022-05-21 08:11:00,,0828.2,5.00,0.00,22.6,21.7,00.0,31.6,24.5,19.9,0000.0,0003.60,0003.03,0002.68
2022-05-21 08:12:00,,0828.2,5.01,0.00,22.6,21.7,00.0,31.6,24.5,19.9,0000.0,0003.63,0003.03,0002.67
2022-05-21 08:13:00,,0828.3,4.99,0.00,22.6,21.7,00.0,31.6,24.5,19.9,0000.0,0003.55,0003.00,0002.66
2022-05-21 08:14:00,,0828.3,5.00,0.00,22.6,21.7,00.0,31.6,24.5,19.9,0000.0,0004.85,0003.00,0002.66
2022-05-21 08:15:00,,0828.3,5.00,0.00,22.6,21.7,00.0,31.6,24.5,19.9,0000.0,0005.12,0003.00,0002.65
2022-05-21 08:16:00,,0828.3,5.00,0.00,22.6,21.7,00.0,31.6,24.5,19.9,0000.0,0005.08,0003.00,0002.65
2022-05-21 08:17:00,,0828.3,5.01,0.00,22.6,21.7,00.0,31.6,24.5,19.9,0000.0,0005.08,0003.01,0002.64
2022-05-21 08:18:00,,0828.3,4.99,0.00,22.6,21.6,00.0,31.6,24.5,19.9,0000.0,0005.16,0003.03,0002.64
2022-05-21 08:19:00,,0828.2,5.00,0.00,22.6,21.6,00.0,31.6,24.5,19.9,0000.0,0005.19,0003.01,0002.61
2022-05-21 08:20:00,,0828.2,5.01,0.00,22.6,21.6,00.0,31.6,24.5,19.9,0000.0,0005.23,0002.99,0002.60
2022-05-21 08:21:00,,0828.2,4.99,0.00,22.6,21.6,00.0,31.6,24.5,19.9,0000.0,0005.18,0002.96,0002.59
2022-05-21 08:22:00,,0828.2,5.00,0.00,22.6,21.6,00.0,31.6,24.5,19.9,0000.0,0005.13,0002.94,0002.58
2022-05-21 08:23:00,,0828.2,5.00,0.00,22.6,21.6,00.0,31.6,24.5,19.9,0000.0,0005.10,0002.90,0002.57
2022-05-21 08:24:00,,0828.2,5.02,0.00,22.6,21.6,00.0,31.6,24.5,19.9,0000.0,0005.15,0002.90,0002.57
2022-05-21 08:25:00,,0828.2,4.99,0.00,22.6,21.6,00.0,31.6,24.5,19.9,0000.0,0004.05,0002.91,0002.57
2022-05-21 08:26:00,,0828.2,4.99,0.00,22.6,21.6,00.0,31.6,24.5,19.9,0000.0,0003.55,0002.88,0002.56
2022-05-21 08:27:00,,0828.2,5.00,0.00,22.6,21.6,00.0,31.5,24.5,19.9,0000.0,0003.51,0002.86,0002.55
2022-05-21 08:28:00,,0828.2,5.01,0.00,22.6,21.6,00.0,31.5,24.5,19.9,0000.0,0003.49,0002.83,0002.54
2022-05-21 08:29:00,,0828.2,5.01,0.00,22.6,21.6,00.0,31.5,24.5,19.8,0000.0,0003.39,0002.81,0002.56
2022-05-21 08:30:00,,0828.2,4.99,0.00,22.6,21.6,00.0,31.5,24.5,19.8,0000.0,0003.30,0002.81,0002.58
2022-05-21 08:31:00,,0828.3,5.00,0.00,22.6,21.6,00.0,31.5,24.5,19.9,0000.0,0003.24,0002.82,0002.59
2022-05-21 08:32:00,,0828.3,5.00,0.00,22.6,21.6,00.0,31.5,24.5,19.9,0000.0,0003.46,0002.89,0002.60
2022-05-21 08:33:00,,0828.2,5.00,0.00,22.6,21.6,00.0,31.5,24.4,19.8,0000.0,0003.56,0002.92,0002.60
2022-05-21 08:34:00,,0828.1,5.00,0.00,22.6,21.6,00.0,31.5,24.4,19.9,0000.0,0003.49,0002.92,0002.61
2022-05-21 08:35:00,,0828.1,5.01,0.00,22.6,21.5,00.0,31.5,24.4,19.9,0000.0,0003.55,0002.97,0002.62
2022-05-21 08:36:00,,0828.2,4.99,0.00,22.6,21.5,00.0,31.5,24.4,19.9,0000.0,0003.61,0002.99,0002.63
2022-05-21 08:37:00,,0828.2,4.99,0.00,22.6,21.5,00.0,31.5,24.4,19.9,0000.0,0003.62,0003.00,0002.65
2022-05-21 08:38:00,,0828.3,5.00,0.00,22.6,21.5,00.0,31.5,24.4,19.9,0000.0,0003.71,0003.04,0002.66
2022-05-21 08:39:00,,0828.3,5.00,0.00,22.6,21.5,00.0,31.5,24.4,19.9,0000.0,0003.75,0003.06,0002.67
2022-05-21 08:40:00,,0828.3,5.00,0.00,22.6,21.5,00.0,31.5,24.5,19.9,0000.0,0003.85,0003.10,0002.68
2022-05-21 08:41:00,,0828.3,5.00,0.00,22.6,21.8,00.0,31.5,24.7,19.8,0000.0,0003.91,0003.12,0002.68
2022-05-21 08:42:00,,0828.5,5.01,0.00,22.7,22.2,00.0,31.5,24.9,19.7,0000.0,0003.96,0003.13,0002.68
2022-05-21 08:43:00,,0828.3,5.00,0.00,22.8,22.4,00.0,31.6,24.9,19.7,0000.0,0003.84,0003.09,0002.68
2022-05-21 08:44:00,,0828.3,4.99,0.00,22.8,22.4,00.0,31.6,24.9,19.6,0000.0,0003.74,0003.07,0002.70
2022-05-21 08:45:00,,0828.3,5.00,0.00,22.9,22.4,00.0,31.6,24.9,19.6,0000.0,0003.76,0003.08,0002.70
2022-05-21 08:46:00,,0828.3,4.99,0.00,22.8,22.3,00.0,31.7,24.9,19.6,0000.0,0003.67,0003.04,0002.69
2022-05-21 08:47:00,,0828.3,5.01,0.00,22.9,22.3,00.0,31.7,24.8,19.6,0000.0,0003.60,0003.02,0002.69
2022-05-21 08:48:00,,0828.3,5.00,0.00,22.9,22.2,00.0,31.7,24.8,19.5,0000.0,0003.60,0003.02,0002.68
2022-05-21 08:49:00,,0828.3,4.99,0.00,22.9,22.2,00.0,31.7,24.8,19.5,0000.0,0003.57,0003.02,0002.68
2022-05-21 08:50:00,,0828.4,5.01,0.00,22.9,22.1,00.0,31.7,24.8,19.5,0000.0,0003.62,0003.00,0002.68
2022-05-21 08:51:00,,0828.4,5.00,0.00,22.9,22.1,00.0,31.7,24.8,19.5,0000.0,0003.63,0003.00,0002.68
2022-05-21 08:52:00,,0828.4,5.01,0.00,22.9,22.0,00.0,31.7,24.8,19.5,0000.0,0003.61,0002.98,0002.67
2022-05-21 08:53:00,,0828.5,4.99,0.00,22.8,22.0,00.0,31.7,24.8,19.5,0000.0,0003.54,0002.95,0002.67
2022-05-21 08:54:00,,0828.5,5.01,0.00,22.8,22.0,00.0,31.7,24.8,19.5,0000.0,0003.54,0002.95,0002.67
2022-05-21 08:55:00,,0828.6,5.00,0.00,22.8,21.9,00.0,31.7,24.8,19.5,0000.0,0003.59,0002.98,0002.68
2022-05-21 08:56:00,,0828.8,4.99,0.00,22.8,21.9,00.0,31.7,24.7,19.5,0000.0,0003.67,0003.02,0002.69
2022-05-21 08:57:00,,0828.8,5.00,0.00,22.8,21.9,00.0,31.7,24.7,19.5,0000.0,0003.69,0003.01,0002.69
2022-05-21 08:58:00,,0829.0,5.00,0.00,22.8,21.9,00.0,31.7,24.7,19.5,0000.0,0003.85,0003.03,0002.69
2022-05-21 08:59:00,,0829.0,5.00,0.00,22.8,21.8,00.0,31.7,24.7,19.5,0000.0,0004.76,0003.05,0002.69
